Time,TemperatureF,DewpointF,PressureIn,WindDirection,WindDirectionDegrees,WindSpeedMPH,WindSpeedGustMPH,Humidity,HourlyPrecipIn,Conditions,Clouds,dailyrainin,SoftwareType,DateUTC
2013-05-31 00:02:00,64.0,63.0,-100.00,ESE,115,14.0,19.0,96,-99.99,,,-99.99,,2013-05-31 05:02:00,
2013-05-31 00:12:00,64.0,63.0,-100.00,SSE,155,14.0,18.0,96,-99.99,,,-99.99,,2013-05-31 05:12:00,
2013-05-31 00:22:00,64.0,63.0,-100.00,SSE,155,14.0,18.0,96,-99.99,,,-99.99,,2013-05-31 05:22:00,
2013-05-31 00:32:00,64.0,63.0,-100.00,SSE,165,14.0,19.0,96,-99.99,,,-99.99,,2013-05-31 05:32:00,
2013-05-31 00:42:00,64.0,63.0,-100.00,SSW,200,16.0,18.0,96,-99.99,,,-99.99,,2013-05-31 05:42:00,
2013-05-31 00:52:00,64.0,63.0,-100.00,SSW,200,16.0,18.0,96,-99.99,,,-99.99,,2013-05-31 05:52:00,
2013-05-31 01:02:00,64.0,63.0,-100.00,SSE,160,11.0,19.0,96,-99.99,,,-99.99,,2013-05-31 06:02:00,
2013-05-31 01:12:00,63.0,62.0,-100.00,SE,140,14.0,16.0,96,-99.99,,,-99.99,,2013-05-31 06:12:00,
2013-05-31 01:21:00,63.0,62.0,-100.00,SE,140,14.0,16.0,96,-99.99,,,-99.99,,2013-05-31 06:21:00,
2013-05-31 01:31:00,63.0,62.0,-100.00,SE,125,14.0,16.0,96,-99.99,,,-99.99,,2013-05-31 06:31:00,
2013-05-31 01:41:00,63.0,62.0,-100.00,ESE,115,15.0,20.0,96,-99.99,,,-99.99,,2013-05-31 06:41:00,
2013-05-31 01:52:00,63.0,62.0,-100.00,ESE,115,15.0,20.0,96,-99.99,,,-99.99,,2013-05-31 06:52:00,
2013-05-31 02:02:00,64.0,62.0,-100.00,SE,140,14.0,16.0,95,-99.99,,,-99.99,,2013-05-31 07:02:00,
2013-05-31 02:11:00,64.0,63.0,-100.00,SE,140,16.0,20.0,94,-99.99,,,-99.99,,2013-05-31 07:11:00,
2013-05-31 02:21:00,64.0,63.0,-100.00,SE,140,16.0,20.0,94,-99.99,,,-99.99,,2013-05-31 07:21:00,
2013-05-31 02:32:00,65.0,64.0,-100.00,SSE,165,16.0,20.0,94,-99.99,,,-99.99,,2013-05-31 07:32:00,
2013-05-31 02:41:00,66.0,64.0,-100.00,South,185,14.0,21.0,94,-99.99,,,-99.99,,2013-05-31 07:41:00,
2013-05-31 02:52:00,66.0,64.0,-100.00,South,185,14.0,21.0,94,-99.99,,,-99.99,,2013-05-31 07:52:00,
2013-05-31 03:02:00,66.0,64.0,-100.00,South,170,14.0,19.0,95,-99.99,,,-99.99,,2013-05-31 08:02:00,
2013-05-31 03:11:00,65.0,64.0,-100.00,SSE,165,12.0,17.0,95,-99.99,,,-99.99,,2013-05-31 08:11:00,
2013-05-31 03:22:00,65.0,64.0,-100.00,SSE,165,12.0,17.0,95,-99.99,,,-99.99,,2013-05-31 08:22:00,
2013-05-31 03:32:00,65.0,64.0,-100.00,SSE,165,14.0,18.0,95,-99.99,,,-99.99,,2013-05-31 08:32:00,
2013-05-31 03:42:00,65.0,64.0,-100.00,SSE,165,14.0,19.0,94,-99.99,,,-99.99,,2013-05-31 08:42:00,
2013-05-31 03:52:00,65.0,64.0,-100.00,SSE,165,14.0,19.0,94,-99.99,,,-99.99,,2013-05-31 08:52:00,
2013-05-31 04:01:00,66.0,64.0,-100.00,South,170,16.0,21.0,94,-99.99,,,-99.99,,2013-05-31 09:01:00,
2013-05-31 04:11:00,66.0,64.0,-100.00,South,170,15.0,19.0,94,-99.99,,,-99.99,,2013-05-31 09:11:00,
2013-05-31 04:21:00,66.0,64.0,-100.00,South,170,15.0,19.0,94,-99.99,,,-99.99,,2013-05-31 09:21:00,
2013-05-31 04:32:00,66.0,64.0,-100.00,SSE,165,17.0,21.0,94,-99.99,,,-99.99,,2013-05-31 09:32:00,
2013-05-31 04:43:00,65.0,64.0,-100.00,South,170,15.0,19.0,94,-99.99,,,-99.99,,2013-05-31 09:43:00,
2013-05-31 04:53:00,65.0,64.0,-100.00,South,170,15.0,19.0,94,-99.99,,,-99.99,,2013-05-31 09:53:00,
2013-05-31 05:02:00,65.0,63.0,-100.00,SSE,165,17.0,22.0,94,-99.99,,,-99.99,,2013-05-31 10:02:00,
2013-05-31 05:12:00,65.0,63.0,-100.00,SSE,165,14.0,21.0,94,-99.99,,,-99.99,,2013-05-31 10:12:00,
2013-05-31 05:22:00,65.0,63.0,-100.00,SSE,165,14.0,21.0,94,-99.99,,,-99.99,,2013-05-31 10:22:00,
2013-05-31 05:33:00,64.0,62.0,-100.00,SSE,165,12.0,16.0,94,-99.99,,,-99.99,,2013-05-31 10:33:00,
2013-05-31 05:42:00,64.0,62.0,-100.00,SSE,165,11.0,16.0,94,-99.99,,,-99.99,,2013-05-31 10:42:00,
2013-05-31 05:52:00,64.0,62.0,-100.00,SSE,165,11.0,16.0,94,-99.99,,,-99.99,,2013-05-31 10:52:00,
2013-05-31 06:02:00,64.0,62.0,-100.00,South,170,10.0,13.0,94,-99.99,,,-99.99,,2013-05-31 11:02:00,
2013-05-31 06:11:00,64.0,62.0,-100.00,SSE,155,13.0,15.0,94,-99.99,,,-99.99,,2013-05-31 11:11:00,
2013-05-31 06:22:00,64.0,62.0,-100.00,SSE,155,13.0,15.0,94,-99.99,,,-99.99,,2013-05-31 11:22:00,
2013-05-31 06:32:00,64.0,62.0,-100.00,SE,145,15.0,18.0,94,-99.99,,,-99.99,,2013-05-31 11:32:00,
2013-05-31 06:42:00,64.0,62.0,-100.00,SSE,150,16.0,19.0,94,-99.99,,,-99.99,,2013-05-31 11:42:00,
2013-05-31 06:52:00,64.0,62.0,-100.00,SSE,150,16.0,19.0,94,-99.99,,,-99.99,,2013-05-31 11:52:00,
2013-05-31 07:01:00,64.0,62.0,-100.00,SSE,155,14.0,20.0,94,-99.99,,,-99.99,,2013-05-31 12:01:00,
2013-05-31 07:11:00,64.0,62.0,-100.00,SSE,155,17.0,21.0,93,-99.99,,,-99.99,,2013-05-31 12:11:00,
2013-05-31 07:21:00,64.0,62.0,-100.00,SSE,155,17.0,21.0,93,-99.99,,,-99.99,,2013-05-31 12:21:00,
2013-05-31 07:31:00,65.0,62.0,-100.00,SSE,155,17.0,22.0,92,-99.99,,,-99.99,,2013-05-31 12:31:00,
2013-05-31 07:41:00,65.0,63.0,-100.00,SSE,155,16.0,23.0,92,-99.99,,,-99.99,,2013-05-31 12:41:00,
2013-05-31 07:52:00,65.0,63.0,-100.00,SSE,155,16.0,23.0,92,-99.99,,,-99.99,,2013-05-31 12:52:00,
2013-05-31 08:01:00,66.0,63.0,-100.00,SSE,165,16.0,23.0,91,-99.99,,,-99.99,,2013-05-31 13:01:00,
2013-05-31 08:11:00,66.0,63.0,-100.00,SSE,165,18.0,23.0,91,-99.99,,,-99.99,,2013-05-31 13:11:00,
2013-05-31 08:21:00,66.0,63.0,-100.00,SSE,165,18.0,23.0,91,-99.99,,,-99.99,,2013-05-31 13:21:00,
2013-05-31 08:32:00,67.0,63.0,-100.00,South,180,16.0,23.0,89,-99.99,,,-99.99,,2013-05-31 13:32:00,
2013-05-31 08:42:00,67.0,63.0,-100.00,South,180,19.0,23.0,89,-99.99,,,-99.99,,2013-05-31 13:42:00,
2013-05-31 08:52:00,67.0,63.0,-100.00,South,180,19.0,23.0,89,-99.99,,,-99.99,,2013-05-31 13:52:00,
2013-05-31 09:02:00,68.0,65.0,-100.00,South,180,14.0,19.0,88,-99.99,,,-99.99,,2013-05-31 14:02:00,
2013-05-31 09:11:00,69.0,65.0,-100.00,South,180,15.0,22.0,85,-99.99,,,-99.99,,2013-05-31 14:11:00,
2013-05-31 09:21:00,69.0,65.0,-100.00,South,180,15.0,22.0,85,-99.99,,,-99.99,,2013-05-31 14:21:00,
2013-05-31 09:32:00,70.0,65.0,-100.00,South,180,17.0,21.0,84,-99.99,,,-99.99,,2013-05-31 14:32:00,
2013-05-31 09:41:00,70.0,65.0,-100.00,South,185,16.0,24.0,84,-99.99,,,-99.99,,2013-05-31 14:41:00,
2013-05-31 09:52:00,70.0,65.0,-100.00,South,185,16.0,24.0,84,-99.99,,,-99.99,,2013-05-31 14:52:00,
2013-05-31 10:01:00,71.0,65.0,-100.00,SSW,195,19.0,24.0,82,-99.99,,,-99.99,,2013-05-31 15:01:00,
2013-05-31 10:11:00,72.0,66.0,-100.00,SSW,200,21.0,27.0,82,-99.99,,,-99.99,,2013-05-31 15:11:00,
2013-05-31 10:21:00,72.0,66.0,-100.00,SSW,200,21.0,27.0,82,-99.99,,,-99.99,,2013-05-31 15:21:00,
2013-05-31 10:33:00,73.0,66.0,-100.00,SSW,195,20.0,26.0,79,-99.99,,,-99.99,,2013-05-31 15:33:00,
2013-05-31 10:43:00,73.0,65.0,-100.00,SSW,205,23.0,30.0,76,-99.99,,,-99.99,,2013-05-31 15:43:00,
2013-05-31 10:53:00,73.0,65.0,-100.00,SSW,205,23.0,30.0,76,-99.99,,,-99.99,,2013-05-31 15:53:00,
2013-05-31 11:03:00,73.0,65.0,-100.00,SSW,205,23.0,29.0,76,-99.99,,,-99.99,,2013-05-31 16:03:00,
2013-05-31 11:12:00,73.0,65.0,-100.00,SW,225,21.0,29.0,77,-99.99,,,-99.99,,2013-05-31 16:12:00,
2013-05-31 11:22:00,73.0,65.0,-100.00,SW,225,21.0,29.0,77,-99.99,,,-99.99,,2013-05-31 16:22:00,
2013-05-31 11:33:00,73.0,65.0,-100.00,SW,225,19.0,27.0,77,-99.99,,,-99.99,,2013-05-31 16:33:00,
2013-05-31 11:42:00,72.0,65.0,-100.00,SW,235,19.0,28.0,78,-99.99,,,-99.99,,2013-05-31 16:42:00,
2013-05-31 11:52:00,72.0,65.0,-100.00,SW,235,19.0,28.0,78,-99.99,,,-99.99,,2013-05-31 16:52:00,
2013-05-31 12:02:00,72.0,64.0,-100.00,SW,225,19.0,27.0,77,-99.99,,,-99.99,,2013-05-31 17:02:00,
2013-05-31 12:12:00,71.0,64.0,-100.00,SW,225,19.0,26.0,81,-99.99,,,-99.99,,2013-05-31 17:12:00,
2013-05-31 12:22:00,71.0,64.0,-100.00,SW,225,19.0,26.0,81,-99.99,,,-99.99,,2013-05-31 17:22:00,
2013-05-31 12:32:00,70.0,65.0,-100.00,SW,225,21.0,26.0,84,-99.99,,,-99.99,,2013-05-31 17:32:00,
2013-05-31 12:42:00,68.0,64.0,-100.00,SW,215,16.0,26.0,87,-99.99,,,-99.99,,2013-05-31 17:42:00,
2013-05-31 12:52:00,68.0,64.0,-100.00,SW,215,16.0,26.0,87,-99.99,,,-99.99,,2013-05-31 17:52:00,
2013-05-31 13:02:00,67.0,64.0,-100.00,SSE,165,14.0,20.0,90,-99.99,,,-99.99,,2013-05-31 18:02:00,
2013-05-31 13:11:00,68.0,64.0,-100.00,SSE,155,18.0,23.0,86,-99.99,,,-99.99,,2013-05-31 18:11:00,
2013-05-31 13:22:00,68.0,64.0,-100.00,SSE,155,18.0,23.0,86,-99.99,,,-99.99,,2013-05-31 18:22:00,
2013-05-31 13:32:00,69.0,64.0,-100.00,South,180,12.0,17.0,85,-99.99,,,-99.99,,2013-05-31 18:32:00,
2013-05-31 13:42:00,69.0,65.0,-100.00,South,190,8.0,16.0,88,-99.99,,,-99.99,,2013-05-31 18:42:00,
2013-05-31 13:52:00,69.0,65.0,-100.00,South,190,8.0,16.0,88,-99.99,,,-99.99,,2013-05-31 18:52:00,
2013-05-31 14:02:00,70.0,66.0,-100.00,SSE,150,11.0,16.0,87,-99.99,,,-99.99,,2013-05-31 19:02:00,
2013-05-31 14:11:00,70.0,66.0,-100.00,SSE,165,11.0,19.0,87,-99.99,,,-99.99,,2013-05-31 19:11:00,
2013-05-31 14:22:00,70.0,66.0,-100.00,SSE,165,11.0,19.0,87,-99.99,,,-99.99,,2013-05-31 19:22:00,
2013-05-31 14:32:00,70.0,66.0,-100.00,SSE,160,7.0,11.0,86,-99.99,,,-99.99,,2013-05-31 19:32:00,
2013-05-31 14:42:00,70.0,65.0,-100.00,SSE,160,14.0,16.0,85,-99.99,,,-99.99,,2013-05-31 19:42:00,
2013-05-31 14:52:00,70.0,65.0,-100.00,SSE,160,14.0,16.0,85,-99.99,,,-99.99,,2013-05-31 19:52:00,
2013-05-31 15:02:00,69.0,66.0,-100.00,South,170,9.0,14.0,90,-99.99,,,-99.99,,2013-05-31 20:02:00,
2013-05-31 15:11:00,70.0,67.0,-100.00,SE,145,10.0,13.0,90,-99.99,,,-99.99,,2013-05-31 20:11:00,
2013-05-31 15:22:00,70.0,67.0,-100.00,SE,145,10.0,13.0,90,-99.99,,,-99.99,,2013-05-31 20:22:00,
2013-05-31 15:32:00,71.0,68.0,-100.00,SE,125,11.0,14.0,90,-99.99,,,-99.99,,2013-05-31 20:32:00,
2013-05-31 15:42:00,71.0,68.0,-100.00,ESE,120,17.0,21.0,90,-99.99,,,-99.99,,2013-05-31 20:42:00,
2013-05-31 15:52:00,71.0,68.0,-100.00,ESE,120,17.0,21.0,90,-99.99,,,-99.99,,2013-05-31 20:52:00,
2013-05-31 16:01:00,72.0,68.0,-100.00,SE,135,21.0,26.0,88,-99.99,,,-99.99,,2013-05-31 21:01:00,
2013-05-31 16:11:00,72.0,68.0,-100.00,SE,140,19.0,26.0,88,-99.99,,,-99.99,,2013-05-31 21:11:00,
2013-05-31 16:22:00,72.0,68.0,-100.00,SE,140,19.0,26.0,88,-99.99,,,-99.99,,2013-05-31 21:22:00,
2013-05-31 16:32:00,71.0,68.0,-100.00,SSE,150,12.0,22.0,89,-99.99,,,-99.99,,2013-05-31 21:32:00,
2013-05-31 16:42:00,65.0,64.0,-100.00,North,5,19.0,59.0,96,-99.99,,,-99.99,,2013-05-31 21:42:00,
2013-05-31 16:54:00,65.0,64.0,-100.00,North,5,19.0,59.0,96,-99.99,,,-99.99,,2013-05-31 21:54:00,
2013-05-31 17:02:00,67.0,66.0,-100.00,SE,130,16.0,18.0,96,-99.99,,,-99.99,,2013-05-31 22:02:00,
2013-05-31 17:12:00,68.0,67.0,-100.00,NW,325,2.0,15.0,96,-99.99,,,-99.99,,2013-05-31 22:12:00,
2013-05-31 17:22:00,68.0,67.0,-100.00,NW,325,2.0,15.0,96,-99.99,,,-99.99,,2013-05-31 22:22:00,
2013-05-31 17:33:00,71.0,70.0,-100.00,SW,225,20.0,31.0,96,-99.99,,,-99.99,,2013-05-31 22:33:00,
2013-05-31 17:42:00,72.0,71.0,-100.00,SSW,195,14.0,26.0,95,-99.99,,,-99.99,,2013-05-31 22:42:00,
2013-05-31 17:53:00,72.0,71.0,-100.00,SSW,195,14.0,26.0,95,-99.99,,,-99.99,,2013-05-31 22:53:00,
2013-05-31 18:02:00,73.0,70.0,-100.00,SSW,200,18.0,26.0,92,-99.99,,,-99.99,,2013-05-31 23:02:00,
2013-05-31 18:12:00,73.0,70.0,-100.00,SSW,205,14.0,23.0,91,-99.99,,,-99.99,,2013-05-31 23:12:00,
2013-05-31 18:21:00,73.0,70.0,-100.00,SSW,205,14.0,23.0,91,-99.99,,,-99.99,,2013-05-31 23:21:00,
2013-05-31 18:32:00,73.0,70.0,-100.00,SSW,200,14.0,21.0,90,-99.99,,,-99.99,,2013-05-31 23:32:00,
2013-05-31 18:42:00,75.0,71.0,-100.00,SSW,205,14.0,19.0,89,-99.99,,,-99.99,,2013-05-31 23:42:00,
2013-05-31 18:52:00,75.0,71.0,-100.00,SSW,205,14.0,19.0,89,-99.99,,,-99.99,,2013-05-31 23:52:00,
2013-05-31 19:01:00,75.0,72.0,-100.00,South,190,13.0,19.0,89,-99.99,,,-99.99,,2013-06-01 00:01:00,
2013-05-31 19:11:00,75.0,72.0,-100.00,South,185,13.0,18.0,89,-99.99,,,-99.99,,2013-06-01 00:11:00,
2013-05-31 19:22:00,75.0,72.0,-100.00,South,185,13.0,18.0,89,-99.99,,,-99.99,,2013-06-01 00:22:00,
2013-05-31 19:32:00,75.0,72.0,-100.00,South,180,14.0,18.0,89,-99.99,,,-99.99,,2013-06-01 00:32:00,
2013-05-31 19:42:00,75.0,71.0,-100.00,South,180,15.0,21.0,88,-99.99,,,-99.99,,2013-06-01 00:42:00,
2013-05-31 19:52:00,75.0,71.0,-100.00,South,180,15.0,21.0,88,-99.99,,,-99.99,,2013-06-01 00:52:00,
2013-05-31 20:01:00,75.0,71.0,-100.00,South,185,16.0,19.0,89,-99.99,,,-99.99,,2013-06-01 01:01:00,
2013-05-31 20:11:00,74.0,71.0,-100.00,South,190,15.0,26.0,89,-99.99,,,-99.99,,2013-06-01 01:11:00,
2013-05-31 20:22:00,74.0,71.0,-100.00,South,190,15.0,26.0,89,-99.99,,,-99.99,,2013-06-01 01:22:00,
2013-05-31 20:32:00,74.0,71.0,-100.00,South,190,15.0,26.0,89,-99.99,,,-99.99,,2013-06-01 01:32:00,
2013-05-31 20:42:00,74.0,71.0,-100.00,South,180,14.0,21.0,91,-99.99,,,-99.99,,2013-06-01 01:42:00,
2013-05-31 20:52:00,74.0,71.0,-100.00,South,180,14.0,21.0,91,-99.99,,,-99.99,,2013-06-01 01:52:00,
2013-05-31 21:01:00,73.0,71.0,-100.00,South,180,17.0,20.0,92,-99.99,,,-99.99,,2013-06-01 02:01:00,
2013-05-31 21:11:00,73.0,71.0,-100.00,SSW,195,17.0,22.0,92,-99.99,,,-99.99,,2013-06-01 02:11:00,
2013-05-31 21:21:00,73.0,71.0,-100.00,SSW,195,17.0,22.0,92,-99.99,,,-99.99,,2013-06-01 02:21:00,
2013-05-31 21:32:00,73.0,71.0,-100.00,SSW,195,20.0,26.0,94,-99.99,,,-99.99,,2013-06-01 02:32:00,
2013-05-31 21:42:00,72.0,71.0,-100.00,South,170,20.0,29.0,94,-99.99,,,-99.99,,2013-06-01 02:42:00,
2013-05-31 21:52:00,72.0,71.0,-100.00,South,170,20.0,29.0,94,-99.99,,,-99.99,,2013-06-01 02:52:00,
2013-05-31 22:01:00,72.0,69.0,-100.00,South,180,20.0,23.0,91,-99.99,,,-99.99,,2013-06-01 03:01:00,
2013-05-31 22:11:00,71.0,63.0,-100.00,SSW,200,21.0,25.0,76,-99.99,,,-99.99,,2013-06-01 03:11:00,
2013-05-31 22:21:00,71.0,63.0,-100.00,SSW,200,21.0,25.0,76,-99.99,,,-99.99,,2013-06-01 03:21:00,
2013-05-31 22:33:00,70.0,62.0,-100.00,SE,130,28.0,34.0,75,-99.99,,,-99.99,,2013-06-01 03:33:00,
2013-05-31 22:43:00,69.0,65.0,-100.00,ESE,115,13.0,24.0,87,-99.99,,,-99.99,,2013-06-01 03:43:00,
2013-05-31 22:53:00,69.0,65.0,-100.00,ESE,115,13.0,24.0,87,-99.99,,,-99.99,,2013-06-01 03:53:00,
2013-05-31 23:03:00,70.0,63.0,-100.00,SSE,155,15.0,22.0,77,-99.99,,,-99.99,,2013-06-01 04:03:00,
2013-05-31 23:12:00,69.0,63.0,-100.00,SW,220,11.0,13.0,82,-99.99,,,-99.99,,2013-06-01 04:12:00,
2013-05-31 23:23:00,69.0,63.0,-100.00,SW,220,11.0,13.0,82,-99.99,,,-99.99,,2013-06-01 04:23:00,
2013-05-31 23:33:00,67.0,64.0,-100.00,South,190,17.0,21.0,90,-99.99,,,-99.99,,2013-06-01 04:33:00,
2013-05-31 23:42:00,67.0,64.0,-100.00,SSW,205,14.0,19.0,92,-99.99,,,-99.99,,2013-06-01 04:42:00,
2013-05-31 23:53:00,67.0,64.0,-100.00,SSW,205,14.0,19.0,92,-99.99,,,-99.99,,2013-06-01 04:53:00,